This is the latest recevied weather packets stored in our database for station/object SV2ASS-2. If no packets are shown the sender has not sent any weather packets the latest 10 day(s).
| Time | Temp. | Humidity | Pressure | Rain* | Wind** | Luminosity | Snow |
|---|---|---|---|---|---|---|---|
| 1778082161 | 25° C | 33% | 1017.9 hPa | - | - | - | - |
| 1778081261 | 25° C | 32% | 1017.8 hPa | - | - | - | - |
| 1778080361 | 25.56° C | 33% | 1017.8 hPa | - | - | - | - |
| 1778079463 | 26.11° C | 33% | 1017.8 hPa | - | - | - | - |
| 1778078563 | 26.67° C | 33% | 1017.9 hPa | - | - | - | - |
| 1778077663 | 26.67° C | 32% | 1017.9 hPa | - | - | - | - |
| 1778076763 | 26.11° C | 35% | 1017.8 hPa | - | - | - | - |
| 1778075863 | 26.11° C | 33% | 1018 hPa | - | - | - | - |
| 1778074963 | 26.11° C | 32% | 1017.9 hPa | - | - | - | - |
| 1778074063 | 27.22° C | 36% | 1018 hPa | - | - | - | - |
| 1778073163 | 26.67° C | 34% | 1018.1 hPa | - | - | - | - |
| 1778072263 | 27.22° C | 34% | 1018.2 hPa | - | - | - | - |
| 1778071362 | 26.67° C | 34% | 1018.3 hPa | - | - | - | - |
| 1778070462 | 26.67° C | 35% | 1018.4 hPa | - | - | - | - |
| 1778069562 | 26.67° C | 33% | 1018.5 hPa | - | - | - | - |
| 1778068662 | 26.67° C | 36% | 1018.6 hPa | - | - | - | - |
| 1778067762 | 25.56° C | 35% | 1018.8 hPa | - | - | - | - |
| 1778066862 | 26.11° C | 33% | 1018.9 hPa | - | - | - | - |
| 1778065962 | 25.56° C | 36% | 1019 hPa | - | - | - | - |
| 1778065062 | 25° C | 36% | 1019.1 hPa | - | - | - | - |
| 1778064162 | 24.44° C | 37% | 1019.2 hPa | - | - | - | - |
| 1778063262 | 23.89° C | 36% | 1019.3 hPa | - | - | - | - |
| 1778062361 | 23.89° C | 39% | 1019.4 hPa | - | - | - | - |
| 1778061461 | 23.33° C | 40% | 1019.6 hPa | - | - | - | - |
| 1778060561 | 22.22° C | 38% | 1019.7 hPa | - | - | - | - |
* Rain since midnight (hover to see other rain measurements)
** Current wind speed in m/s (hover to see current wind gust speed)